TimePST,TemperatureF,Dew PointF,Humidity,Sea Level PressureIn,VisibilityMPH,Wind Direction,Wind SpeedMPH,Gust SpeedMPH,PrecipitationIn,Events,Conditions,WindDirDegrees,DateUTC
12:53 AM,39.0,34.0,82,30.21,10.0,Calm,Calm,-,N/A,,Clear,0,2013-02-26 08:53:00
1:53 AM,36.0,33.1,89,30.20,10.0,ENE,3.5,-,N/A,,Clear,60,2013-02-26 09:53:00
2:53 AM,37.0,33.1,86,30.19,10.0,East,3.5,-,N/A,,Clear,100,2013-02-26 10:53:00
3:53 AM,34.0,30.9,89,30.19,10.0,ENE,4.6,-,N/A,,Clear,60,2013-02-26 11:53:00
4:53 AM,36.0,32.0,86,30.19,10.0,Calm,Calm,-,N/A,,Clear,0,2013-02-26 12:53:00
5:53 AM,36.0,32.0,86,30.21,10.0,Calm,Calm,-,N/A,,Clear,0,2013-02-26 13:53:00
6:53 AM,36.0,30.9,82,30.22,10.0,Calm,Calm,-,N/A,,Clear,0,2013-02-26 14:53:00
7:53 AM,44.1,30.9,60,30.21,10.0,Calm,Calm,-,N/A,,Clear,0,2013-02-26 15:53:00
8:53 AM,52.0,28.0,40,30.22,10.0,SSE,3.5,-,N/A,,Clear,160,2013-02-26 16:53:00
9:53 AM,57.0,26.1,30,30.21,10.0,Calm,Calm,-,N/A,,Clear,0,2013-02-26 17:53:00
10:53 AM,60.1,19.0,20,30.20,10.0,NNE,10.4,25.3,N/A,,Clear,20,2013-02-26 18:53:00
11:53 AM,63.0,18.0,18,30.19,10.0,NNE,10.4,-,N/A,,Clear,20,2013-02-26 19:53:00
12:53 PM,64.0,18.0,17,30.17,10.0,NE,10.4,-,N/A,,Clear,40,2013-02-26 20:53:00
1:53 PM,64.9,25.0,22,30.14,10.0,ENE,10.4,-,N/A,,Clear,70,2013-02-26 21:53:00
2:53 PM,66.9,21.0,17,30.14,10.0,North,6.9,-,N/A,,Clear,360,2013-02-26 22:53:00
3:53 PM,68.0,21.0,17,30.13,10.0,NNW,6.9,-,N/A,,Clear,340,2013-02-26 23:53:00
4:53 PM,66.0,23.0,20,30.13,10.0,North,5.8,-,N/A,,Clear,360,2013-02-27 00:53:00
5:53 PM,64.0,23.0,21,30.13,10.0,SE,3.5,-,N/A,,Clear,130,2013-02-27 01:53:00
6:53 PM,57.0,35.1,44,30.16,10.0,NW,8.1,-,N/A,,Clear,310,2013-02-27 02:53:00
7:53 PM,55.0,36.0,49,30.17,10.0,NW,4.6,-,N/A,,Clear,310,2013-02-27 03:53:00
8:53 PM,52.0,35.1,53,30.19,10.0,Calm,Calm,-,N/A,,Clear,0,2013-02-27 04:53:00
9:53 PM,46.0,34.0,63,30.20,10.0,East,3.5,-,N/A,,Clear,90,2013-02-27 05:53:00
10:53 PM,44.1,33.1,65,30.21,10.0,East,3.5,-,N/A,,Clear,80,2013-02-27 06:53:00
11:53 PM,43.0,34.0,71,30.22,10.0,Calm,Calm,-,N/A,,Clear,0,2013-02-27 07:53:00